User: anonymous   Login
Location: Unspecified
(0.0000°N, 0.0000°E)
Time: 10:04:11
(UTC+00:00)
Language:

SBIRS GEO 1 (USA 230) - Orbit

View from above orbital plane
View from above orbital plane
View from above satellite
View from above satellite

Ground track
Ground track

The orbit data is extracted from the following two-line orbital elements,

1 37481U 11019A   15107.05794208 0.00000000  00000-0  00000-0 0    07
2 37481   4.6776 319.7752 0004016 320.4877  39.4860  1.00270000    01
Epoch (UTC): 17 April 2015 01:23:26
Eccentricity: 0.0004016
inclination: 4.6776°
perigee height: 35770 km
apogee height: 35803 km
right ascension of ascending node: 319.7752°
argument of perigee: 320.4877°
revolutions per day: 1.00270000
mean anomaly at epoch: 39.4860°
orbit number at epoch: 0

The dashed part of the orbit path shows where the satellite is in the earth's shadow,  

DLR